Temperature
23 23 23 22 22 21 21 20 20 20 20 19 19 19 19 18 18 18 18 18 18 18 18 18 18 18 17 17 17 17 17 17 17 17 17 18 18 18 18 18 18 18 18
23 23 23 22 22 22 21 21 21 20 20 20 19 19 19 19 18 18 18 18 18 18 18 18 18 18 18 17 17 17 17 17 17 17 17 17 18 18 18 18 18 18 18
24 23 23 23 22 22 22 21 21 20 20 20 19 19 19 19 19 18 18 18 18 18 18 18 18 18 18 18 17 17 17 17 17 17 17 17 17 17 18 18 18 18 18
24 24 24 23 23 23 22 22 21 21 20 20 20 19 19 19 19 19 18 18 18 18 18 18 18 18 18 17 17 17 17 17 17 17 17 17 17 17 17 17 17 17 17
24 24 24 24 24 23 22 22 21 21 21 20 20 20 19 19 19 19 19 18 18 18 18 18 18 18 18 18 17 17 17 17 17 17 17 17 17 17 16 16 17 17 17
25 25 25 24 24 23 23 22 22 21 21 21 20 20 20 19 19 19 19 19 18 18 18 18 18 18 18 18 17 17 17 17 17 17 17 17 17 17 16 16 16 17 17
25 25 24 24 24 24 23 23 22 22 21 21 21 20 20 20 19 19 19 19 19 18 18 18 18 18 18 18 18 17 17 17 17 17 17 17 17 16 16 16 16 16 16
25 25 25 25 25 24 24 23 23 22 22 21 21 21 20 20 20 19 19 19 19 19 18 18 18 18 18 18 17 17 17 17 17 17 17 17 17 16 16 16 16 16 16
25 25 25 25 25 25 24 24 23 23 22 22 21 21 21 20 20 19 19 19 19 18 18 18 18 18 18 18 17 17 17 17 17 17 17 16 16 16 16 16 16 16 15
25 26 25 25 25 25 24 24 23 23 23 22 22 21 21 20 20 19 19 19 19 18 18 18 18 18 18 18 17 17 17 17 17 17 16 16 16 16 16 16 16 15 15
25 25 25 25 25 25 24 24 23 23 22 22 22 21 21 20 20 19 19 19 19 18 18 18 18 18 18 18 17 17 17 17 17 16 16 16 16 16 16 16 15 15 15
25 25 25 25 24 24 24 24 23 23 23 22 22 21 21 20 20 20 19 19 19 18 18 18 18 18 18 17 17 17 17 17 16 16 16 16 16 16 16 15 15 15 15
24 24 24 24 24 24 24 24 23 23 23 22 22 21 21 20 20 20 19 19 19 18 18 18 18 18 18 17 17 17 17 17 16 16 16 16 15 15 15 15 15 15 15
23 24 24 24 24 24 24 24 23 23 22 22 22 21 21 21 20 20 19 19 19 19 18 18 18 18 18 17 17 17 17 16 16 16 16 15 15 15 15 15 15 15 15
22 23 23 24 24 24 24 24 23 23 22 22 22 21 21 21 20 20 19 19 19 18 18 18 18 18 17 17 17 17 17 16 16 16 16 15 15 15 15 15 15 14 14
22 22 23 24 24 24 24 24 23 23 22 22 22 21 21 20 20 20 19 19 19 18 18 18 18 17 17 17 17 16 16 16 16 16 16 15 15 15 15 14 14 14 14
22 23 23 23 24 24 23 23 23 23 22 22 21 21 20 20 20 20 19 19 19 18 18 17 17 17 17 17 16 16 16 16 16 16 15 15 15 15 14 14 14 14 13
22 22 23 23 23 23 23 23 22 22 22 21 21 21 20 20 20 19 19 19 18 18 18 17 17 17 17 16 16 16 16 16 15 15 15 15 15 14 14 14 13 13 13
21 22 22 23 23 23 22 22 22 22 21 21 21 21 20 20 19 19 19 18 18 18 17 17 17 16 16 16 16 16 16 15 15 15 15 14 14 14 14 13 13 13 13
21 21 22 22 22 22 22 21 21 21 21 21 20 20 20 19 19 19 18 18 17 17 17 16 16 16 16 16 16 15 15 15 15 14 14 14 14 13 13 13 13 13 12
20 21 21 21 21 22 22 21 21 20 20 20 20 19 19 19 18 18 18 17 17 16 16 16 16 15 15 15 15 15 15 14 14 14 13 13 13 13 12 12 12 12 12
19 19 20 20 20 21 21 20 20 20 19 19 19 18 18 18 17 17 17 17 16 16 16 15 15 15 15 15 14 14 14 14 13 13 13 13 12 12 12 12 12 12 12
19 19 19 19 19 20 20 19 19 19 19 18 18 18 18 17 17 17 16 16 16 16 15 15 15 15 15 14 14 14 13 13 13 13 12 12 12 12 12 11 11 11 11
18 18 18 18 18 18 18 18 18 18 18 17 17 17 17 17 16 16 15 15 15 15 15 15 14 14 14 14 14 13 13 13 12 12 12 12 11 11 11 11 11 11 11
16 17 17 17 18 17 17 17 17 17 17 17 17 16 16 16 16 15 15 15 15 15 15 15 14 14 14 14 13 13 13 12 12 12 12 11 11 11 10 10 10 10 10
16 16 16 16 16 16 16 17 17 16 16 16 16 16 15 15 15 15 14 14 14 14 14 14 14 13 13 13 12 12 12 11 11 11 11 11 11 10 10 10 9 9 9
Wind_Speed
9 7 8 8 8 7 7 8 8 6 5 3 3 3 2 2 2 3 5 6 7 8 7 4 4 4 4 4 4 2 2 2 1 0 2 2 2 4 4 5 5 7 9
7 7 7 8 9 9 9 8 8 7 6 4 3 3 2 2 2 2 3 5 6 7 7 5 4 4 4 4 4 3 2 2 2 2 0 2 3 2 3 3 4 5 6
11 10 9 9 9 10 10 10 9 8 7 6 3 2 2 1 0 1 2 3 5 6 6 6 5 5 5 4 5 5 5 3 2 3 3 2 3 2 2 2 3 4 4
11 10 10 10 11 11 10 9 8 8 7 6 5 5 4 3 3 2 2 2 3 5 6 5 5 4 4 4 5 5 4 4 3 2 3 3 3 2 2 2 2 3 4
13 13 13 12 11 10 9 9 8 7 7 7 7 6 4 3 2 1 2 1 2 3 4 4 4 4 3 4 4 4 5 4 4 3 3 3 3 3 3 4 3 2 3
13 12 11 9 8 8 8 8 9 8 7 7 7 7 7 5 4 3 3 2 2 2 3 3 3 3 3 4 4 4 5 4 4 4 3 3 3 4 4 5 5 4 3
12 12 12 11 10 10 10 9 10 9 8 8 8 8 8 7 6 5 4 3 2 2 3 2 3 3 4 4 4 4 4 5 5 5 5 5 5 3 3 4 4 4 3
11 12 13 12 11 11 11 10 10 9 8 9 8 7 7 5 5 5 5 4 4 3 3 2 3 3 3 3 3 3 4 4 5 6 5 4 5 5 5 4 4 4 3
11 11 11 11 11 11 11 11 10 9 9 9 8 7 7 6 6 5 4 3 3 3 3 3 2 2 2 2 2 2 3 3 4 4 4 4 4 4 5 4 4 4 5
9 9 9 9 9 9 8 8 9 9 8 8 8 7 7 6 5 4 4 4 4 3 3 2 2 2 1 1 1 2 2 2 3 3 3 3 3 3 3 3 4 5 5
9 9 8 8 8 7 7 8 8 7 6 7 7 6 5 5 5 4 4 4 4 3 3 3 2 1 1 1 1 2 2 2 2 2 2 3 2 2 2 2 3 3 4
6 7 7 7 7 8 8 8 8 7 7 7 6 6 5 5 5 5 4 4 4 3 3 3 2 2 1 1 2 2 1 1 2 2 2 2 2 2 2 2 3 3 4
4 5 6 7 7 8 8 7 7 8 7 7 7 6 6 6 6 6 5 4 3 3 3 3 3 2 2 2 2 2 1 1 2 2 1 2 1 2 2 2 2 2 3
4 5 5 6 6 7 7 7 7 7 7 7 8 8 8 7 7 6 6 5 5 5 4 3 3 2 2 2 2 2 1 1 1 0 1 1 2 2 2 2 2 2 2
3 5 5 5 5 6 6 7 7 6 6 7 8 9 8 7 7 7 7 6 5 5 4 3 2 2 2 2 2 2 2 1 0 0 0 1 2 2 2 2 2 2 1
4 4 4 5 6 6 6 5 5 6 7 8 8 7 7 7 8 7 7 6 5 4 4 3 3 2 2 2 3 3 2 2 2 0 1 1 2 3 2 2 2 1 1
5 5 6 7 7 7 6 6 5 4 5 6 6 6 7 7 7 7 7 6 6 5 4 4 3 2 1 2 2 3 3 2 1 0 1 1 2 2 2 2 2 2 3
4 5 5 5 5 5 5 5 5 5 6 6 6 6 6 6 6 6 6 6 5 5 4 3 3 2 1 1 2 3 3 2 1 0 0 1 2 2 2 1 2 2 2
5 5 5 5 4 4 5 5 4 5 5 6 6 6 6 6 7 7 6 5 5 4 3 3 3 3 1 1 2 3 2 2 1 1 1 1 2 3 2 1 1 2 3
3 3 2 2 3 4 5 5 5 5 6 5 5 5 6 6 7 7 7 5 5 5 4 3 3 3 1 1 3 4 2 2 1 1 1 2 2 3 3 1 1 1 3
3 2 1 2 3 3 6 6 6 6 6 5 5 6 6 6 5 5 5 6 6 5 4 3 2 2 1 1 2 4 2 2 1 1 0 1 3 3 3 2 1 1 1
2 1 1 1 1 3 5 6 6 5 4 4 4 5 5 5 5 6 5 5 6 5 4 3 2 1 1 1 1 3 2 2 2 1 0 0 2 2 2 2 1 1 2
1 1 1 1 0 2 4 5 3 4 5 5 4 4 4 4 5 6 6 5 5 5 4 4 3 2 1 0 1 2 2 2 2 1 2 2 2 2 2 3 3 3 2
2 1 1 1 0 0 2 4 4 5 6 5 4 4 4 4 4 4 5 5 5 5 5 4 4 3 2 1 1 1 1 2 1 1 2 4 4 3 3 3 3 3 2
2 1 1 2 2 1 1 3 4 6 6 5 5 5 4 5 4 4 2 3 3 5 6 5 5 4 3 3 4 3 2 2 2 3 2 3 2 3 3 3 3 3 2
2 1 0 1 1 2 1 2 4 6 6 5 5 5 5 4 5 5 3 4 3 3 4 4 5 3 3 5 5 5 4 4 5 4 3 2 2 1 1 2 2 2 2
Wind_Direction
218 199 190 183 175 177 181 186 188 186 167 163 174 180 203 214 217 220 222 217 214 209 201 211 201 190 202 215 207 196 214 226 175 172 310 298 257 244 239 234 234 234 232
209 198 191 184 184 186 189 191 195 191 184 180 171 169 171 194 212 219 224 219 216 210 208 204 205 200 206 217 211 194 193 215 177 168 212 319 322 291 256 240 235 238 233
208 201 196 194 190 193 194 198 198 195 189 177 147 126 100 71 177 229 231 221 218 215 214 209 201 200 200 216 219 202 196 211 208 190 172 192 248 301 303 261 250 248 240
205 200 198 197 199 202 195 194 191 191 187 172 172 174 186 204 215 209 224 234 220 219 217 211 202 201 199 215 227 214 207 200 219 217 214 211 193 218 295 302 270 261 252
201 200 201 201 201 196 191 191 185 189 185 180 184 183 199 209 201 190 223 232 230 224 217 209 203 204 209 224 228 218 213 207 213 211 207 215 215 216 228 270 283 282 261
200 199 196 188 191 187 188 186 185 194 187 185 186 191 203 202 195 206 217 222 220 228 223 210 206 209 214 227 231 223 220 221 222 221 214 209 211 211 217 244 261 269 269
194 193 189 188 191 190 191 189 189 197 192 189 193 199 205 200 202 208 210 209 212 226 231 212 207 215 219 225 230 229 233 227 228 230 231 231 234 222 213 232 254 260 266
193 194 193 192 194 195 191 188 192 198 193 194 202 200 201 201 208 207 204 207 213 224 221 208 218 220 217 225 227 240 243 237 235 240 235 236 239 230 223 222 233 261 263
190 191 190 187 190 193 192 189 190 195 196 198 197 198 199 200 205 205 201 207 216 221 212 207 211 218 213 218 222 248 256 248 245 247 245 246 247 237 234 230 228 238 263
184 184 186 187 188 190 187 184 188 195 198 196 199 203 198 198 195 189 197 203 210 208 197 206 205 205 206 216 206 244 260 255 261 255 253 259 262 248 239 234 236 233 239
187 184 181 179 175 172 172 179 185 184 191 198 197 197 193 187 182 188 201 202 202 195 197 205 200 196 211 207 202 242 264 265 277 279 267 276 275 267 259 242 237 237 237
180 173 168 166 169 173 176 181 184 186 194 192 190 194 187 175 179 189 195 191 195 195 190 186 180 200 212 200 204 238 259 259 274 281 282 289 298 293 291 271 256 246 235
152 150 154 167 177 182 184 183 186 194 189 177 180 187 185 182 188 190 185 184 187 186 180 182 186 202 204 206 215 219 234 241 255 260 265 285 289 298 296 284 278 270 256
156 156 166 181 185 186 187 183 192 194 182 177 182 193 192 184 188 183 172 178 188 189 182 182 185 195 200 210 210 200 209 224 253 274 278 302 301 298 299 289 280 276 268
163 179 187 189 188 191 193 190 184 180 181 185 193 200 193 182 179 178 177 180 183 185 169 169 177 188 203 229 210 194 181 166 139 27 338 314 314 309 306 307 293 271 255
203 203 200 197 197 199 199 202 196 182 180 191 203 197 186 183 182 182 177 172 172 168 159 175 185 196 227 217 189 177 164 154 150 144 331 344 346 346 352 1 8 9 261
211 204 209 210 207 206 200 195 197 182 178 189 195 190 186 185 185 183 175 177 177 168 168 177 180 193 209 193 181 179 158 146 145 141 334 339 350 351 345 350 11 21 23
230 223 219 225 218 198 188 180 170 169 179 184 185 181 183 186 181 176 178 177 167 166 170 168 163 163 145 140 149 152 143 127 114 93 346 327 332 345 340 352 20 15 8
235 229 222 218 209 189 175 161 167 176 183 187 186 180 179 184 184 183 183 175 159 161 166 157 152 152 131 108 148 147 132 121 93 55 39 16 349 353 25 73 13 354 344
263 240 231 204 194 180 155 158 175 181 197 193 187 176 178 184 187 183 178 169 160 165 163 155 151 151 147 125 142 143 135 135 118 52 37 40 34 25 52 87 69 347 333
283 246 201 213 208 178 157 165 177 195 196 172 162 165 169 173 177 173 167 158 153 154 161 157 147 140 138 130 128 136 149 168 169 159 27 21 38 45 56 72 64 313 332
312 268 178 212 219 176 162 174 188 185 151 138 147 147 149 157 157 158 161 157 156 162 166 158 156 148 133 112 134 138 139 150 164 183 181 61 60 63 65 66 45 51 68
282 267 205 183 193 168 165 179 182 147 134 130 143 143 139 143 148 155 158 159 162 165 173 177 187 187 174 88 140 161 160 158 162 156 131 106 95 87 70 51 49 55 63
268 251 202 172 170 260 179 165 155 145 140 141 142 150 156 155 157 164 164 168 174 177 178 190 195 187 175 184 197 186 162 157 131 100 97 94 86 78 68 50 43 40 42
312 266 203 193 178 190 203 151 145 144 146 149 156 166 170 165 160 148 147 170 184 191 183 193 191 188 199 207 186 174 173 168 155 126 90 74 67 58 49 43 38 34 37
306 303 175 190 188 180 193 163 146 149 156 162 168 172 174 168 162 158 137 73 94 108 132 157 166 169 167 161 161 158 143 132 131 115 105 95 90 79 53 45 32 24 17
Height
1524 1527 1530 1532 1534 1536 1538 1539 1541 1542 1543 1545 1546 1547 1548 1550 1551 1552 1553 1554 1555 1556 1557 1558 1559 1560 1560 1561 1562 1562 1562 1563 1563 1563 1563 1563 1562 1562 1562 1562 1562 1563 1563
1522 1525 1527 1530 1532 1534 1536 1538 1539 1541 1542 1543 1545 1546 1547 1548 1549 1550 1551 1551 1553 1554 1555 1557 1557 1558 1559 1559 1560 1560 1560 1561 1561 1561 1561 1560 1561 1559 1559 1559 1559 1560 1560
1519 1522 1525 1527 1529 1531 1533 1536 1538 1539 1541 1542 1544 1545 1546 1546 1547 1548 1549 1550 1551 1552 1554 1555 1555 1556 1557 1557 1558 1558 1558 1559 1559 1559 1560 1559 1558 1557 1557 1557 1557 1557 1557
1516 1519 1522 1524 1526 1529 1531 1533 1536 1538 1539 1541 1542 1543 1543 1544 1545 1546 1547 1548 1549 1551 1552 1553 1553 1554 1554 1555 1555 1556 1556 1556 1556 1556 1556 1557 1556 1556 1554 1554 1554 1554 1554
1511 1514 1518 1521 1524 1527 1529 1531 1533 1535 1537 1539 1540 1541 1542 1543 1544 1545 1546 1547 1548 1549 1550 1551 1551 1552 1552 1552 1553 1553 1553 1553 1553 1553 1553 1553 1553 1553 1553 1551 1551 1551 1551
1506 1510 1514 1518 1521 1524 1526 1529 1531 1533 1535 1537 1538 1539 1540 1541 1543 1544 1545 1546 1547 1548 1549 1549 1550 1550 1550 1550 1550 1550 1550 1550 1550 1550 1550 1550 1550 1550 1549 1548 1547 1547 1547
1502 1506 1510 1514 1517 1520 1523 1526 1528 1530 1532 1534 1536 1537 1539 1540 1541 1542 1543 1544 1545 1546 1546 1547 1547 1547 1547 1548 1548 1548 1548 1548 1547 1547 1547 1547 1547 1547 1546 1546 1544 1543 1542
1497 1501 1506 1510 1514 1517 1520 1523 1525 1527 1530 1532 1534 1535 1537 1538 1539 1540 1541 1542 1543 1544 1544 1545 1545 1545 1545 1545 1545 1545 1545 1545 1544 1544 1544 1543 1543 1543 1542 1542 1541 1539 1538
1493 1498 1502 1506 1510 1514 1517 1520 1523 1525 1527 1529 1531 1533 1535 1536 1537 1538 1539 1540 1541 1542 1542 1542 1542 1543 1543 1542 1542 1542 1542 1542 1541 1541 1540 1540 1539 1539 1538 1538 1538 1537 1535
1491 1495 1499 1503 1508 1511 1514 1518 1520 1523 1525 1527 1529 1531 1532 1534 1536 1537 1538 1539 1539 1540 1540 1540 1540 1540 1540 1540 1540 1539 1539 1539 1538 1537 1537 1536 1535 1535 1534 1534 1533 1533 1532
1488 1492 1497 1501 1505 1509 1512 1515 1517 1519 1522 1525 1527 1529 1530 1532 1534 1535 1536 1537 1537 1538 1538 1538 1538 1538 1538 1538 1538 1537 1536 1536 1535 1535 1534 1533 1532 1531 1530 1530 1529 1528 1528
1487 1491 1495 1499 1503 1506 1509 1512 1514 1517 1519 1522 1524 1525 1527 1529 1530 1532 1533 1534 1535 1536 1536 1536 1536 1536 1536 1536 1536 1535 1534 1534 1533 1532 1531 1530 1529 1528 1527 1526 1525 1525 1524
1487 1490 1493 1497 1500 1503 1506 1509 1512 1514 1517 1518 1521 1523 1524 1526 1527 1528 1529 1531 1532 1533 1533 1533 1533 1534 1534 1534 1533 1533 1532 1531 1530 1529 1529 1528 1527 1525 1524 1523 1522 1521 1520
1486 1488 1491 1494 1497 1500 1502 1505 1509 1511 1513 1515 1517 1519 1521 1522 1524 1526 1527 1528 1529 1529 1529 1530 1531 1531 1531 1531 1530 1530 1529 1528 1528 1527 1526 1526 1525 1523 1522 1520 1519 1518 1517
1485 1486 1488 1491 1494 1496 1499 1501 1504 1506 1509 1512 1514 1516 1518 1519 1520 1522 1523 1525 1526 1526 1526 1527 1528 1529 1529 1528 1528 1527 1526 1526 1525 1524 1523 1523 1522 1521 1519 1518 1516 1515 1513
1482 1484 1486 1488 1491 1493 1495 1497 1500 1502 1505 1507 1510 1512 1514 1515 1516 1518 1519 1521 1522 1523 1524 1524 1525 1525 1526 1526 1525 1525 1524 1523 1522 1522 1521 1520 1519 1518 1517 1515 1514 1513 1512
1480 1481 1483 1485 1487 1489 1492 1494 1496 1499 1501 1503 1506 1508 1510 1511 1513 1514 1515 1517 1518 1519 1520 1521 1522 1522 1523 1523 1522 1522 1521 1520 1520 1519 1518 1517 1516 1515 1514 1513 1512 1511 1509
1478 1479 1480 1482 1484 1486 1488 1491 1493 1495 1497 1499 1501 1503 1505 1507 1509 1511 1512 1513 1515 1516 1517 1518 1518 1519 1519 1520 1519 1519 1518 1518 1517 1516 1515 1514 1514 1512 1511 1511 1510 1508 1507
1476 1477 1478 1479 1481 1482 1485 1487 1490 1491 1493 1495 1496 1498 1500 1503 1505 1507 1509 1510 1512 1513 1514 1515 1515 1516 1516 1517 1516 1516 1516 1515 1514 1513 1512 1511 1510 1510 1508 1508 1507 1506 1505
1475 1475 1475 1477 1478 1479 1481 1484 1485 1487 1489 1490 1492 1494 1497 1499 1501 1503 1506 1507 1508 1509 1511 1512 1512 1513 1513 1513 1513 1513 1513 1512 1511 1510 1510 1509 1508 1507 1506 1505 1504 1503 1503
1472 1472 1472 1473 1474 1476 1477 1479 1481 1483 1485 1487 1489 1491 1493 1495 1497 1500 1502 1504 1504 1506 1507 1509 1510 1510 1510 1510 1510 1510 1509 1509 1508 1507 1506 1506 1505 1504 1503 1503 1502 1501 1500
1469 1469 1469 1469 1471 1472 1474 1476 1478 1480 1482 1483 1485 1487 1490 1491 1493 1496 1498 1500 1501 1502 1503 1505 1506 1507 1507 1507 1507 1507 1507 1506 1505 1504 1504 1503 1502 1502 1501 1501 1500 1499 1498
1466 1466 1466 1466 1467 1469 1471 1473 1474 1477 1479 1481 1482 1484 1486 1487 1489 1492 1494 1496 1497 1498 1499 1501 1502 1503 1504 1504 1504 1504 1504 1503 1503 1502 1501 1500 1500 1499 1499 1499 1498 1497 1496
1464 1463 1464 1464 1464 1466 1468 1469 1471 1473 1475 1477 1479 1482 1483 1485 1486 1488 1491 1492 1493 1494 1495 1497 1498 1499 1499 1500 1500 1501 1500 1500 1500 1499 1499 1498 1498 1497 1497 1496 1496 1496 1495
1463 1462 1461 1461 1462 1465 1465 1466 1468 1470 1472 1474 1476 1478 1480 1481 1483 1485 1487 1488 1489 1491 1492 1493 1494 1495 1496 1496 1497 1497 1497 1497 1497 1497 1496 1495 1495 1495 1494 1494 1494 1494 1493
1462 1460 1460 1460 1461 1463 1464 1464 1465 1467 1470 1471 1473 1475 1476 1478 1480 1482 1484 1485 1486 1487 1488 1490 1491 1491 1493 1493 1494 1494 1495 1495 1495 1494 1493 1493 1493 1493 1493 1492 1492 1492 1491